CW6777 Weather Reports


time (UTC)temp
C
wind
direction
speed
KPH
gust
KPH
rain 1hr
cm
rain 24hr
cm
rain mn
cm
humidity
%
barometer
mb
20260503213509 13 36 8.0 24.1 0.00 0.00 0.00 39 1009.9
20260503213027 13 339 4.8 19.3 0.00 0.00 0.00 39 1009.8
20260503212510 13 76 3.2 19.3 0.00 0.00 0.00 39 1009.8
20260503212010 14 314 6.4 17.7 0.00 0.00 0.00 38 1009.8
20260503211520 14 17 1.6 17.7 0.00 0.00 0.00 41 1009.8
20260503211011 13 15 4.8 20.9 0.00 0.00 0.00 42 1009.8
20260503210505 13 34 6.4 20.9 0.00 0.00 0.00 37 1009.8
20260503210014 13 14 4.8 22.5 0.00 0.00 0.00 40 1009.8
20260503205507 13 9 6.4 22.5 0.00 0.00 0.00 37 1009.8
20260503205015 13 47 9.7 22.5 0.00 0.00 0.00 37 1009.9
20260503204523 13 326 8.0 22.5 0.00 0.00 0.00 37 1009.9
20260503204008 14 10 6.4 24.1 0.00 0.00 0.00 37 1009.9
20260503203506 14 97 4.8 24.1 0.00 0.00 0.00 39 1009.9
20260503203020 13 304 9.7 19.3 0.00 0.00 0.00 37 1009.9
20260503202514 14 27 8.0 17.7 0.00 0.00 0.00 36 1010.1
20260503202012 15 132 6.4 24.1 0.00 0.00 0.00 38 1010.2
20260503201528 15 60 6.4 27.4 0.00 0.00 0.00 39 1010.2
20260503201011 14 5 8.0 27.4 0.00 0.00 0.00 40 1010.1
20260503200507 14 45 3.2 19.3 0.00 0.00 0.00 41 1010.2
20260503200022 14 346 6.4 19.3 0.00 0.00 0.00 41 1010.2
20260503195508 13 24 3.2 19.3 0.00 0.00 0.00 40 1010.2
20260503195012 13 82 6.4 25.7 0.00 0.00 0.00 38 1010.2
20260503194527 13 355 8.0 25.7 0.00 0.00 0.00 38 1010.3
20260503194010 14 40 6.4 24.1 0.00 0.00 0.00 38 1010.4
20260503193506 14 19 6.4 24.1 0.00 0.00 0.00 37 1010.5
20260503193014 14 344 4.8 24.1 0.00 0.00 0.00 41 1010.6
20260503192506 14 114 3.2 19.3 0.00 0.00 0.00 44 1010.6
20260503192015 14 89 8.0 24.1 0.00 0.00 0.00 42 1010.8
20260503191521 13 284 9.7 24.1 0.00 0.00 0.00 39 1010.9
20260503191010 13 58 6.4 19.3 0.00 0.00 0.00 41 1010.8
20260503190507 13 342 4.8 19.3 0.00 0.00 0.00 39 1010.9
20260503190021 13 14 6.4 30.6 0.00 0.00 0.00 39 1010.9
20260503185506 13 57 11.3 30.6 0.00 0.00 0.00 41 1011.0
20260503185006 13 38 14.5 30.6 0.00 0.00 0.00 39 1011.0
20260503184522 13 102 4.8 22.5 0.00 0.00 0.00 44 1011.1
20260503184007 13 16 8.0 22.5 0.00 0.00 0.00 38 1011.0
20260503183517 13 18 4.8 16.1 0.00 0.00 0.00 42 1011.1
20260503183030 13 111 4.8 16.1 0.00 0.00 0.00 42 1011.2
20260503182509 13 98 4.8 27.4 0.00 0.00 0.00 42 1011.2
20260503182011 12 12 11.3 27.4 0.00 0.00 0.00 39 1011.2
20260503181528 12 352 1.6 19.3 0.00 0.00 0.00 42 1011.2
20260503181004 12 175 4.8 19.3 0.00 0.00 0.00 41 1011.2
20260503180504 12 34 6.4 27.4 0.00 0.00 0.00 42 1011.2
20260503180004 12 348 9.7 27.4 0.00 0.00 0.00 40 1011.3
20260503175504 12 9 6.4 25.7 0.00 0.00 0.00 40 1011.3
20260503175007 12 324 6.4 25.7 0.00 0.00 0.00 44 1011.3
20260503174507 12 50 8.0 25.7 0.00 0.00 0.00 44 1011.5
20260503174002 12 326 8.0 24.1 0.00 0.00 0.00 43 1011.5
20260503173502 12 40 4.8 22.5 0.00 0.00 0.00 42 1011.5
20260503173024 12 18 8.0 22.5 0.00 0.00 0.00 39 1011.5
20260503172502 12 5 4.8 19.3 0.00 0.00 0.00 41 1011.5
20260503172003 12 179 3.2 24.1 0.00 0.00 0.00 43 1011.5
20260503171512 12 20 6.4 24.1 0.00 0.00 0.00 42 1011.5
20260503171006 12 345 6.4 24.1 0.00 0.00 0.00 47 1011.5
20260503170503 12 10 4.8 33.8 0.00 0.00 0.00 43 1011.6
20260503151006 10 67 9.7 25.7 0.00 0.00 0.00 49 1012.7
20260503150512 9 97 1.6 30.6 0.00 0.00 0.00 55 1012.7
20260503131007 7 49 6.4 17.7 0.00 0.00 0.00 59 1013.2
20260503130509 7 19 4.8 16.1 0.00 0.00 0.00 61 1013.2
20260503110513 1 35 0.0 12.9 0.00 0.00 0.00 76 1012.6
20260503090505 2 123 3.2 16.1 0.00 0.03 0.00 71 1011.6
20260503081513 2 13 1.6 12.9 0.00 0.03 0.00 72 1011.5
20260503081007 2 122 0.0 1.6 0.00 0.03 0.00 72 1011.5
20260503080505 2 117 0.0 4.8 0.00 0.03 0.00 72 1011.4
20260503072506 2 113 0.0 6.4 0.00 0.03 0.00 72 1011.3
20260503072006 2 61 0.0 4.8 0.00 0.03 0.00 72 1011.3
20260503071505 2 123 0.0 4.8 0.00 0.03 0.00 72 1011.3
20260503071004 2 70 0.0 3.2 0.00 0.03 0.00 72 1011.3
20260503070504 2 35 0.0 4.8 0.00 0.03 0.00 73 1011.2
20260503055003 2 132 0.0 4.8 0.00 0.03 0.00 69 1011.3
20260503054513 2 67 1.6 3.2 0.00 0.03 0.00 70 1011.3
20260503054008 2 77 0.0 3.2 0.00 0.03 0.00 71 1011.2
20260503053509 2 76 0.0 3.2 0.00 0.05 0.00 73 1011.3
20260503053012 2 46 0.0 3.2 0.00 0.05 0.00 72 1011.3
20260503052505 2 96 0.0 1.6 0.00 0.05 0.00 73 1011.4
20260503052010 2 121 0.0 14.5 0.00 0.08 0.00 73 1011.3
20260503051512 2 146 1.6 14.5 0.00 0.08 0.00 71 1011.4
20260503051010 2 56 0.0 3.2 0.00 0.08 0.00 75 1011.5
20260503050505 2 34 0.0 3.2 0.00 0.08 0.00 79 1011.5
20260503050008 2 61 0.0 0.0 0.00 0.08 0.00 78 1011.5
20260503045503 2 61 0.0 0.0 0.00 0.08 0.00 78 1011.5
20260503045010 2 61 0.0 1.6 0.00 0.08 0.00 78 1011.5
20260503044522 2 61 0.0 1.6 0.00 0.08 0.00 77 1011.5
20260503044010 3 44 0.0 0.0 0.00 0.08 0.00 77 1011.5
20260503043507 3 44 0.0 0.0 0.00 0.08 0.00 77 1011.5
20260503043012 3 44 0.0 1.6 0.00 0.08 0.00 75 1011.5
20260503042509 3 44 0.0 1.6 0.00 0.08 0.00 76 1011.5
20260503042007 3 44 0.0 1.6 0.00 0.10 0.00 75 1011.5
20260503041510 3 56 0.0 0.0 0.00 0.10 0.00 74 1011.6
20260503041007 3 56 0.0 0.0 0.00 0.13 0.00 71 1011.6
20260503040513 3 56 0.0 3.2 0.00 0.15 0.00 73 1011.6
20260503040015 3 56 0.0 3.2 0.00 0.18 0.00 72 1011.6
20260503035507 3 40 0.0 3.2 0.00 0.18 0.18 73 1011.6
20260503035011 3 40 0.0 3.2 0.00 0.18 0.18 72 1011.7
20260503034513 4 40 0.0 3.2 0.00 0.18 0.18 72 1011.7
20260503034007 4 46 0.0 3.2 0.00 0.18 0.18 71 1011.7
20260503033505 4 57 0.0 3.2 0.00 0.18 0.18 69 1011.7
20260503033014 4 69 0.0 4.8 0.00 0.18 0.18 69 1011.7
20260503032509 4 69 0.0 4.8 0.00 0.18 0.18 67 1011.8
20260503032010 4 34 0.0 4.8 0.00 0.18 0.18 70 1011.9
20260503031517 4 26 0.0 9.7 0.00 0.18 0.18 69 1011.9
20260503031007 4 14 0.0 9.7 0.00 0.18 0.18 68 1011.9
20260503030508 5 26 0.0 9.7 0.00 0.18 0.18 69 1011.9
20260503030016 5 20 0.0 9.7 0.00 0.18 0.18 66 1011.8
20260503025512 5 322 1.6 6.4 0.00 0.18 0.18 67 1011.9
20260503025010 5 75 0.0 6.4 0.00 0.18 0.18 67 1011.9
20260503024520 5 26 0.0 8.0 0.00 0.18 0.18 68 1011.8
20260503024009 5 355 1.6 8.0 0.00 0.18 0.18 68 1011.9
20260503023508 5 360 0.0 4.8 0.00 0.18 0.18 71 1012.0
20260503023023 5 82 0.0 4.8 0.00 0.18 0.18 68 1012.0
20260503022507 5 26 0.0 4.8 0.00 0.18 0.18 69 1012.0
20260503022010 5 31 0.0 4.8 0.00 0.18 0.18 68 1012.0
20260503021519 5 51 1.6 11.3 0.00 0.18 0.18 69 1012.1
20260503021016 5 44 3.2 11.3 0.00 0.18 0.18 69 1012.1
20260503020510 5 348 0.0 8.0 0.00 0.18 0.18 70 1012.0
20260503020028 5 68 1.6 12.9 0.00 0.18 0.18 69 1011.9
20260503015509 5 31 3.2 12.9 0.00 0.18 0.18 69 1011.8
20260503015012 5 88 4.8 12.9 0.00 0.18 0.18 70 1011.8
20260503014520 5 338 1.6 11.3 0.00 0.20 0.18 71 1011.7
20260503014008 5 47 3.2 12.9 0.00 0.20 0.18 73 1011.7
20260503013510 5 50 3.2 12.9 0.00 0.20 0.18 73 1011.7
20260503013018 5 27 4.8 9.7 0.00 0.20 0.18 73 1011.8
20260503012511 5 15 1.6 8.0 0.00 0.20 0.18 73 1011.8
20260503012015 5 322 1.6 8.0 0.00 0.20 0.18 73 1011.7
20260503011516 5 337 1.6 8.0 0.00 0.20 0.18 73 1011.7
20260503011007 5 340 1.6 8.0 0.00 0.20 0.18 72 1011.6
20260503010507 5 18 3.2 8.0 0.00 0.20 0.18 72 1011.6
20260503010017 5 45 1.6 9.7 0.00 0.20 0.18 72 1011.6
20260503005509 5 322 3.2 9.7 0.00 0.20 0.18 73 1011.5
20260503005010 5 30 0.0 9.7 0.00 0.20 0.18 74 1011.5
20260503004523 5 74 1.6 9.7 0.00 0.20 0.18 75 1011.5
20260503004011 5 20 1.6 8.0 0.00 0.20 0.18 75 1011.4
20260503003511 5 46 0.0 6.4 0.00 0.20 0.18 75 1011.3
20260503003031 5 328 1.6 9.7 0.00 0.20 0.18 74 1011.2
20260503002509 5 34 1.6 9.7 0.00 0.20 0.18 73 1011.3
20260503002007 5 327 1.6 9.7 0.00 0.20 0.18 74 1011.2
20260503001526 5 350 1.6 8.0 0.00 0.23 0.18 73 1011.2
20260503001004 6 40 0.0 9.7 0.00 0.23 0.18 73 1011.3
20260503000504 6 16 3.2 9.7 0.00 0.25 0.18 72 1011.2
20260503000015 6 5 3.2 8.0 0.00 0.25 0.18 73 1011.3
20260502235504 6 360 3.2 6.4 0.00 0.25 0.18 72 1011.2
20260502235004 6 57 0.0 9.7 0.00 0.25 0.18 72 1011.2
20260502234506 6 9 1.6 9.7 0.00 0.28 0.18 72 1011.1
20260502234003 6 36 1.6 8.0 0.00 0.28 0.18 72 1011.1
20260502233504 6 11 0.0 8.0 0.00 0.28 0.18 73 1011.1
20260502233006 6 351 1.6 8.0 0.00 0.28 0.18 71 1011.1
20260502232503 6 42 0.0 6.4 0.00 0.28 0.18 71 1011.0
20260502232004 6 66 1.6 8.0 0.00 0.28 0.18 71 1011.0
20260502231507 6 65 0.0 9.7 0.00 0.28 0.18 70 1011.0
20260502231003 6 21 1.6 9.7 0.00 0.28 0.18 71 1010.8
20260502230503 6 136 0.0 8.0 0.00 0.28 0.18 72 1010.8
20260502230009 6 115 0.0 8.0 0.00 0.28 0.18 71 1010.9
20260502225503 6 34 1.6 9.7 0.00 0.28 0.18 70 1010.7
20260502225005 6 52 3.2 9.7 0.00 0.28 0.18 71 1010.8
20260502224507 6 78 0.0 4.8 0.00 0.28 0.18 71 1010.8
20260502224007 6 18 1.6 4.8 0.00 0.28 0.18 69 1010.8
20260502223505 6 31 0.0 3.2 0.00 0.28 0.18 71 1010.8
20260502223022 7 32 0.0 4.8 0.00 0.28 0.18 70 1010.9
20260502222504 7 30 0.0 6.4 0.00 0.28 0.18 70 1010.7
20260502222005 7 71 1.6 6.4 0.00 0.28 0.18 70 1010.8
20260502221504 7 32 0.0 6.4 0.00 0.28 0.18 70 1010.8
20260502221008 7 36 0.0 0.0 0.00 0.28 0.18 71 1010.8
20260502220506 7 69 0.0 8.0 0.00 0.28 0.18 70 1010.7
20260502220006 7 360 0.0 8.0 0.00 0.28 0.18 71 1010.7
20260502215507 7 27 3.2 8.0 0.00 0.28 0.18 72 1010.7
20260502215007 7 86 0.0 8.0 0.00 0.28 0.18 73 1010.8
20260502214509 6 360 0.0 8.0 0.00 0.28 0.18 72 1010.7
20260502214007 6 93 1.6 4.8 0.00 0.28 0.18 73 1010.7